Location: Unspecified
(0.0000°N, 0.0000°E)
Time: 13:34:36
(UTC+00:00)

Vanguard 2 Rocket - Pass Details

Date: 10 December 2017
Orbit: 553 x 3328 km, 32.9° (Epoch: 22 April)

Event Time Altitude Azimuth Distance (km) Brightness Sun altitude
Rises 14:34:08 0° 204° (SSW) 3,100 10.2 44.6°
Reaches altitude 10° 14:36:46 10° 186° (S) 2,415 9.6 44.1°
Maximum altitude 14:41:03 21° 137° (SE) 2,161 9.0 43.2°
Drops below altitude 10° 14:47:04 10° 91° (E) 3,554 9.6 41.9°
Sets 14:52:00 0° 78° (ENE) 5,104 10.3 40.8°
